Date,TemperatureHighF,TemperatureAvgF,TemperatureLowF,DewpointHighF,DewpointAvgF,DewpointLowF,HumidityHigh,HumidityAvg,HumidityLow,PressureMaxIn,PressureMinIn,WindSpeedMaxMPH,WindSpeedAvgMPH,GustSpeedMaxMPH,PrecipitationSumIn
2013-1-1,55.0,44.6,32.2,30.0,26.1,19.9,73,50,31,30.30,30.17,18,-2,18,0.00
2013-1-2,61.3,52.9,42.4,21.2,18.1,15.4,37,25,19,30.19,30.01,23,5,23,0.00
2013-1-3,61.3,54.1,48.4,19.9,16.0,10.8,25,22,19,30.22,30.04,26,8,26,0.00
2013-1-4,58.5,50.3,43.7,26.6,22.3,16.0,46,34,25,30.32,30.21,22,2,22,0.00
2013-1-5,61.0,49.9,41.7,27.5,24.5,21.6,48,37,25,30.37,30.21,16,2,17,0.00
2013-1-6,63.3,52.7,41.2,27.1,23.7,20.7,51,33,21,30.22,29.93,16,1,17,0.00
2013-1-7,57.7,50.4,39.0,28.9,25.7,22.3,62,39,26,29.98,29.88,12,1,13,0.00
2013-1-8,66.9,50.7,36.1,30.6,23.5,14.4,66,38,14,30.12,29.92,12,0,13,0.00
2013-1-9,71.8,53.8,40.5,27.9,24.6,20.1,56,34,16,30.23,30.00,12,0,12,0.00
2013-1-10,60.8,52.8,44.1,38.8,27.1,21.6,54,38,24,30.01,29.79,20,1,20,0.00
2013-1-11,51.6,45.0,37.0,25.2,16.3,7.0,55,33,17,30.12,29.90,17,1,17,0.00
2013-1-12,50.7,39.9,27.7,19.0,11.0,0.7,61,33,17,30.15,30.01,10,1,11,0.00
2013-1-13,47.1,36.1,27.0,10.6,6.5,1.8,49,30,16,30.17,30.09,7,-18,7,0.00
2013-1-14,43.9,36.9,29.7,10.8,6.4,2.8,40,28,19,30.31,30.11,11,1,12,0.00
2013-1-15,49.8,39.5,28.6,8.8,-0.0,-5.3,39,20,11,30.49,30.31,11,-3,11,0.00
2013-1-16,61.0,48.5,31.3,17.8,13.5,7.2,43,25,16,30.44,30.25,17,-4,17,0.00
2013-1-17,70.9,61.6,54.9,20.7,17.9,16.0,22,18,13,30.28,30.13,25,4,26,0.00
2013-1-18,73.6,62.3,51.3,24.4,21.4,19.0,33,21,14,30.22,30.07,17,2,17,0.00
2013-1-19,74.1,60.9,48.7,26.2,22.9,19.2,37,24,13,30.24,30.09,20,1,20,0.00
2013-1-20,75.6,64.5,54.5,23.7,18.2,14.4,30,17,12,30.15,29.99,18,2,19,0.00
2013-1-21,77.7,64.1,48.4,23.5,18.5,10.9,33,18,11,30.11,29.99,17,2,18,0.00
2013-1-22,79.9,66.9,56.3,27.7,19.4,10.4,28,17,12,30.15,30.04,19,2,19,0.00
2013-1-23,79.0,67.7,59.9,29.8,24.8,19.6,28,20,14,30.18,30.05,19,3,19,0.00
2013-1-24,69.1,62.6,58.1,49.3,39.6,26.4,72,45,21,30.22,30.09,17,1,18,0.02
2013-1-25,73.8,64.8,54.9,57.7,46.6,40.3,73,53,37,30.15,29.92,13,1,13,0.03
2013-1-26,65.8,59.0,57.0,57.0,55.3,51.3,95,88,61,29.97,29.87,10,1,11,1.03
2013-1-27,66.3,59.3,55.8,57.1,55.6,53.2,95,88,69,29.99,29.88,7,1,8,0.18
2013-1-28,57.7,52.7,47.7,52.9,37.7,27.7,91,58,39,30.04,29.88,14,2,15,0.18
2013-1-29,57.0,49.5,42.6,31.1,26.5,20.8,58,41,26,30.23,30.03,16,2,16,0.00
2013-1-30,59.7,49.4,39.4,34.2,30.9,23.4,78,51,25,30.38,30.23,14,0,14,0.00
2013-1-31,68.4,54.1,41.2,39.0,33.8,30.0,72,48,26,30.28,30.10,11,1,12,0.00
2013-2-1,70.5,56.4,43.7,40.3,36.4,27.7,80,50,21,30.22,30.12,15,0,16,0.00
2013-2-2,74.8,60.1,45.9,40.5,36.6,30.9,75,44,24,30.27,30.10,10,0,12,0.00
2013-2-3,68.7,62.2,56.7,46.6,40.2,32.7,63,45,27,30.11,29.93,13,1,15,0.00
2013-2-4,73.4,62.7,55.0,48.2,44.6,41.0,73,53,32,30.03,29.91,16,0,16,0.00
2013-2-5,74.5,61.7,48.9,44.8,43.0,40.3,79,52,33,30.02,29.89,14,1,14,0.00
2013-2-6,71.4,60.3,50.7,45.9,43.7,39.9,76,56,38,30.00,29.89,10,0,10,0.00
2013-2-7,71.1,59.3,46.9,44.4,40.9,36.5,83,53,30,30.11,29.91,7,0,7,0.00
2013-2-8,64.6,57.6,50.0,40.8,33.5,21.4,65,42,24,29.91,29.77,16,2,16,0.00
2013-2-9,54.9,49.8,44.6,36.7,30.7,26.1,73,49,34,30.05,29.79,22,2,22,0.00
2013-2-10,57.4,48.5,40.6,34.5,30.1,26.8,67,50,34,30.07,29.96,11,1,12,0.00
2013-2-11,51.1,46.0,39.0,39.9,34.6,29.7,83,65,49,30.20,29.98,16,2,16,0.04
2013-2-12,56.8,45.4,33.4,38.1,31.1,21.7,92,62,26,30.35,30.20,7,0,7,0.00
2013-2-13,63.3,50.2,35.8,28.8,24.9,18.1,73,40,18,30.25,30.12,14,0,14,0.00
2013-2-14,68.4,53.8,37.2,30.9,28.0,20.3,72,40,20,30.17,30.04,9,0,9,0.00
2013-2-15,75.2,65.2,57.0,27.7,19.2,11.3,30,18,11,30.24,30.13,22,3,25,0.00
2013-2-16,78.3,65.9,55.9,22.3,16.0,8.2,26,15,7,30.24,29.94,28,5,28,0.00
2013-2-17,74.7,61.8,48.4,24.8,16.9,8.6,35,18,8,29.94,29.81,12,1,13,0.00
2013-2-18,72.3,60.7,44.4,27.7,21.0,10.0,49,23,10,30.04,29.87,14,1,15,0.00
2013-2-19,71.4,60.8,51.1,29.8,21.8,16.3,38,23,14,29.88,29.65,16,2,16,0.00
2013-2-20,54.9,46.2,38.7,43.7,37.1,28.2,87,72,39,29.98,29.65,16,2,19,0.23
2013-2-21,56.7,46.3,37.4,39.0,35.4,33.1,91,68,44,30.09,29.98,10,1,10,0.00
2013-2-22,60.4,50.8,42.6,38.3,31.3,20.5,78,51,22,30.16,30.03,11,1,14,0.00
2013-2-23,63.3,52.1,39.6,32.4,29.1,23.5,71,43,24,30.15,29.85,10,1,11,0.00
2013-2-24,59.2,52.7,45.7,32.0,16.0,1.0,55,27,10,30.12,29.84,23,4,24,0.00
2013-2-25,63.7,51.1,38.3,23.4,17.6,10.6,49,28,14,30.24,30.04,15,1,15,0.00
2013-2-26,66.9,53.1,36.9,28.4,19.5,4.8,63,31,12,30.09,29.96,22,2,22,0.00
2013-2-27,65.8,57.4,44.8,14.0,6.6,-1.5,27,13,8,30.24,30.09,20,3,20,0.00
2013-2-28,69.8,57.0,41.7,16.5,11.0,4.1,34,17,9,30.33,30.21,15,1,15,0.00
2013-3-1,78.1,63.0,45.3,27.1,20.0,9.9,36,20,12,30.35,30.17,15,1,15,0.00
2013-3-2,81.9,66.7,51.3,33.6,28.0,22.8,46,25,12,30.27,30.05,13,1,13,0.00
2013-3-3,75.0,63.4,49.3,37.0,32.2,28.0,52,33,18,30.05,29.86,10,0,10,0.00
2013-3-4,75.2,64.7,53.2,37.4,33.7,27.9,46,32,22,30.04,29.83,14,1,16,0.00
2013-3-5,77.7,65.7,51.3,39.0,34.9,27.0,58,33,17,30.09,29.93,12,1,13,0.00
2013-3-6,79.9,66.6,53.2,39.6,33.9,25.9,52,32,15,30.01,29.84,11,0,11,0.00
2013-3-7,77.7,64.9,50.7,37.6,32.7,28.0,55,32,18,29.94,29.81,9,1,11,0.00
2013-3-8,66.0,54.9,45.5,52.2,43.9,26.1,85,70,24,29.97,29.71,24,3,29,0.76
2013-3-9,56.8,49.5,42.3,42.4,40.2,35.8,90,71,53,30.12,29.97,12,1,13,0.76
2013-3-10,68.7,55.6,41.5,44.1,39.5,33.4,91,58,31,30.22,30.09,11,1,11,0.00
2013-3-11,74.8,62.0,51.3,40.6,35.3,24.3,66,39,16,30.19,30.00,14,2,15,0.00
2013-3-12,82.0,67.6,50.4,41.7,35.9,27.5,67,34,15,30.09,29.96,14,1,14,0.00
2013-3-13,88.0,73.8,55.4,44.6,34.8,23.2,67,27,10,30.12,29.97,17,1,17,0.00
2013-3-14,92.3,78.6,61.3,44.4,33.1,24.1,41,21,10,30.07,29.91,12,1,12,0.00
2013-3-15,91.2,75.6,57.9,43.9,36.3,27.7,58,26,12,29.96,29.81,14,1,16,0.00
2013-3-16,86.5,72.6,58.5,41.0,33.5,18.3,52,26,9,29.83,29.68,11,1,11,0.00
2013-3-17,85.3,73.4,62.1,36.3,26.8,10.0,32,20,8,29.83,29.72,14,2,14,0.00
2013-3-18,84.4,71.5,60.6,37.6,31.8,16.2,38,24,12,29.94,29.81,13,1,13,0.00
2013-3-19,82.2,71.4,60.6,42.8,36.7,31.8,48,29,18,29.97,29.85,14,0,15,0.00
2013-3-20,83.5,72.0,60.4,40.1,35.8,32.5,45,28,17,30.00,29.76,13,1,14,0.00
2013-3-21,84.6,74.4,66.4,43.3,37.2,31.1,38,27,17,29.77,29.63,13,1,13,0.00
2013-3-22,82.2,71.5,57.7,41.5,35.2,16.3,50,28,14,29.73,29.62,16,1,16,0.00
2013-3-23,78.3,69.2,58.1,31.6,6.9,-18.0,33,10,2,29.95,29.73,18,2,19,0.00
2013-3-24,79.0,67.3,50.0,18.5,10.0,-0.8,28,11,7,29.99,29.83,14,2,18,0.00
2013-3-25,81.3,69.5,56.1,27.0,18.3,10.4,30,15,8,29.99,29.85,13,1,14,0.00
2013-3-26,86.5,72.3,56.7,31.5,23.4,16.5,34,17,8,29.92,29.75,11,0,11,0.00
2013-3-27,84.9,73.4,60.4,30.7,23.8,16.9,31,16,10,29.90,29.80,12,1,14,0.00
2013-3-28,85.3,72.9,61.9,32.9,26.3,19.2,33,18,13,30.00,29.89,12,1,13,0.00
2013-3-29,86.4,74.6,60.8,34.0,26.5,17.1,35,18,9,30.05,29.92,12,1,12,0.00
2013-3-30,84.0,73.9,66.4,34.7,29.0,22.3,30,19,13,30.00,29.88,13,1,14,0.00
2013-3-31,88.5,74.6,57.0,39.9,31.8,25.2,44,22,12,29.98,29.82,13,1,13,0.00
2013-4-1,83.7,73.9,60.4,44.6,32.3,17.8,52,24,9,29.94,29.83,15,1,15,0.00
2013-4-2,82.2,71.9,56.3,34.0,27.8,23.0,41,20,13,29.93,29.80,19,2,19,0.00
2013-4-3,85.3,74.2,59.5,36.5,32.4,25.7,40,22,12,29.99,29.86,15,1,18,0.00
2013-4-4,86.7,75.3,61.2,40.1,30.9,18.1,38,21,9,30.01,29.85,11,0,11,0.00
2013-4-5,87.6,77.1,66.4,38.1,32.3,22.3,31,20,10,29.90,29.77,15,1,16,0.00
2013-4-6,86.7,75.3,60.6,38.8,33.6,25.7,43,23,14,29.91,29.74,11,1,11,0.00
2013-4-7,87.4,75.8,65.1,41.2,36.5,31.1,36,25,15,29.83,29.64,12,1,12,0.00
2013-4-8,81.9,70.3,56.8,45.1,38.2,27.3,65,32,15,29.64,29.33,31,5,31,0.02
2013-4-9,71.6,63.1,54.1,46.4,31.0,20.8,72,34,17,29.87,29.52,19,3,19,0.03
2013-4-10,73.6,63.5,51.3,33.4,28.3,21.6,42,27,19,29.99,29.87,14,1,14,0.00
2013-4-11,82.0,68.5,54.3,34.5,28.2,20.8,45,24,11,29.94,29.71,11,1,12,0.00
2013-4-12,84.7,72.1,58.5,36.3,28.3,19.2,38,21,10,29.78,29.67,17,1,17,0.00
2013-4-13,88.5,75.7,58.6,33.6,28.0,22.8,37,19,10,29.79,29.63,15,2,16,0.00
2013-4-14,88.5,76.3,62.8,37.8,30.3,24.3,32,19,10,29.70,29.55,15,2,15,0.00
2013-4-15,85.3,74.8,61.0,42.3,34.9,28.4,48,24,15,29.71,29.59,17,2,19,0.00
2013-4-16,80.4,70.1,59.2,43.5,35.4,15.1,50,30,13,29.76,29.64,19,3,21,0.00
2013-4-17,72.5,65.1,55.6,34.5,20.0,2.3,40,20,7,30.01,29.74,24,4,24,0.00
2013-4-18,73.4,64.2,54.9,20.5,12.5,3.4,20,14,8,30.13,30.00,15,3,22,0.00
2013-4-19,81.9,69.6,56.3,20.3,8.1,-8.0,21,10,3,30.16,29.90,19,2,20,0.00
2013-4-20,88.3,73.1,52.9,27.3,17.9,3.9,35,14,7,29.94,29.80,14,1,15,0.00
2013-4-21,91.9,78.4,62.1,28.9,21.9,14.7,24,13,7,29.98,29.82,17,1,19,0.00
2013-4-22,92.8,79.3,62.1,31.8,23.0,15.3,32,14,7,29.89,29.67,13,1,13,0.00
2013-4-23,90.0,78.8,63.1,35.2,26.4,5.7,33,15,6,29.81,29.69,15,1,15,0.00
2013-4-24,89.2,78.9,66.4,34.3,24.6,4.3,23,14,6,29.85,29.73,13,-2,14,0.00
2013-4-25,81.7,74.6,65.7,41.5,31.7,21.4,31,21,14,29.96,29.78,18,2,18,0.00
2013-4-26,89.8,76.1,58.6,39.6,31.5,16.5,45,22,7,30.07,29.94,10,1,11,0.00
2013-4-27,94.8,82.0,64.6,38.8,27.8,12.7,37,16,6,30.00,29.79,13,1,13,0.00
2013-4-28,98.1,84.6,67.5,31.3,20.7,3.4,23,10,4,29.83,29.65,17,1,17,0.00
2013-4-29,101.3,85.9,67.3,33.3,22.0,12.6,25,11,5,29.73,29.54,16,1,16,0.00
2013-4-30,98.1,87.0,70.9,34.0,21.0,12.4,25,9,5,29.68,29.56,16,2,17,0.00
2013-5-1,92.7,80.9,63.9,32.4,23.8,4.8,29,13,5,29.89,29.68,14,1,14,0.00
2013-5-2,91.0,81.8,72.3,13.5,3.4,-5.3,8,5,3,30.10,29.88,24,5,25,0.00
2013-5-3,88.2,78.8,67.8,26.4,19.4,2.3,20,11,5,30.00,29.73,21,2,21,0.00
2013-5-4,94.8,82.8,72.5,27.5,19.2,10.4,15,10,5,29.73,29.56,14,2,15,0.00
2013-5-5,90.3,79.1,68.5,36.5,25.9,14.4,27,15,7,29.82,29.68,20,2,20,0.00
2013-5-6,84.4,75.3,66.4,46.2,42.7,25.7,44,32,17,29.91,29.78,7,1,16,0.00
2013-5-7,82.2,72.8,62.4,46.6,41.4,36.5,51,33,24,29.94,29.80,17,3,23,0.00
2013-5-8,81.9,72.5,61.3,43.0,39.0,32.2,50,31,21,30.00,29.86,16,1,16,0.00
2013-5-9,85.5,76.0,65.8,41.5,37.2,32.2,35,25,18,29.95,29.82,14,2,14,0.00
2013-5-10,90.9,80.8,66.7,42.6,35.3,25.5,40,21,10,29.95,29.83,20,1,20,0.00
2013-5-11,93.4,83.4,73.2,42.3,37.3,29.3,29,20,11,30.01,29.89,20,2,20,0.00
2013-5-12,97.2,85.7,75.7,40.5,35.7,30.0,23,17,10,30.06,29.83,14,1,14,0.00
2013-5-13,99.7,88.2,72.7,41.2,34.6,29.5,29,16,10,29.98,29.77,13,1,13,0.00
2013-5-14,101.1,89.8,76.5,39.6,34.1,26.1,21,14,9,29.88,29.68,15,2,15,0.00
2013-5-15,98.1,88.1,75.9,42.1,37.2,32.5,25,17,11,29.86,29.70,14,2,21,0.00
2013-5-16,99.1,86.0,74.1,39.9,28.8,12.9,26,14,5,29.83,29.64,17,2,17,0.00
2013-5-17,92.8,81.8,64.9,39.2,30.9,14.9,34,17,9,29.81,29.71,14,1,14,0.00
2013-5-18,90.3,81.8,73.2,45.1,38.7,32.5,36,22,14,29.85,29.74,14,2,17,0.00
2013-5-19,93.4,83.3,70.7,43.9,38.5,33.8,34,21,13,29.84,29.67,16,2,19,0.00
2013-5-20,94.3,84.9,73.8,42.8,29.0,18.3,30,15,7,29.82,29.70,20,3,21,0.00
2013-5-21,97.2,84.4,70.2,33.1,24.9,11.8,25,12,5,29.83,29.65,16,2,16,0.00
2013-5-22,100.2,86.7,72.7,31.5,25.1,10.8,21,11,6,29.72,29.53,16,2,16,0.00
2013-5-23,98.1,85.2,67.5,39.9,29.2,7.5,34,14,6,29.74,29.62,16,2,16,0.00
2013-5-24,98.2,84.2,66.9,35.8,24.6,7.2,24,12,6,29.85,29.71,23,2,23,0.00
2013-5-25,97.3,84.1,68.2,31.8,24.8,15.4,25,12,7,29.86,29.73,15,1,15,0.00
2013-5-26,94.5,81.7,65.1,33.6,24.3,16.5,30,13,6,29.89,29.75,10,0,10,0.00
2013-5-27,92.8,81.8,68.5,37.9,31.2,23.4,24,16,11,29.81,29.65,14,1,14,0.00
2013-5-28,95.0,82.4,66.6,43.7,35.5,28.6,33,19,11,29.66,29.49,18,2,18,0.00
2013-5-29,95.0,85.4,74.3,50.4,42.4,37.2,29,23,15,29.67,29.54,16,3,16,0.00
2013-5-30,97.7,87.0,74.5,52.9,47.3,39.7,44,27,16,29.75,29.61,13,2,13,0.00
2013-5-31,99.3,87.8,76.1,54.9,48.7,36.1,47,28,13,29.80,29.65,11,1,11,0.00
2013-6-1,106.2,94.0,80.2,50.9,42.6,30.7,35,19,8,29.73,29.57,13,2,14,0.00
2013-6-2,107.4,95.3,82.6,47.8,40.5,29.8,27,16,8,29.67,29.52,15,2,15,0.00
2013-6-3,103.3,90.9,77.4,39.7,32.0,25.3,25,13,7,29.72,29.59,13,1,13,0.00
2013-6-4,102.6,91.0,76.5,42.3,33.6,25.7,26,14,9,29.77,29.63,12,1,14,0.00
2013-6-5,102.6,90.9,73.9,41.2,32.2,17.6,29,14,5,29.79,29.63,14,1,15,0.00
2013-6-6,107.4,95.2,78.6,38.8,32.8,26.1,23,12,7,29.71,29.55,14,1,15,0.00
2013-6-7,109.6,97.5,83.7,38.8,32.5,26.6,18,11,6,29.67,29.50,14,2,15,0.00
2013-6-8,106.9,96.0,82.8,39.7,33.2,25.0,21,12,6,29.69,29.55,15,2,17,0.00
2013-6-9,106.3,93.3,76.3,41.5,30.9,9.1,27,13,3,29.80,29.65,13,1,13,0.00
2013-6-10,108.1,93.8,75.7,43.3,29.8,14.7,31,12,4,29.79,29.63,11,1,11,0.00
2013-6-11,107.4,94.6,77.4,38.3,31.7,18.0,22,11,8,29.79,29.66,15,1,15,0.00
2013-6-12,108.9,96.6,79.3,48.2,39.0,32.4,30,15,8,29.80,29.67,13,1,13,0.00
2013-6-13,104.4,95.1,82.9,53.1,47.3,42.4,27,20,16,29.82,29.64,15,2,15,0.00
2013-6-14,104.0,93.5,81.3,54.9,46.9,38.1,38,22,11,29.77,29.60,13,1,13,0.00
2013-6-15,105.4,94.1,82.4,48.4,40.9,30.7,30,17,10,29.79,29.64,14,2,14,0.00
2013-6-16,105.8,94.8,79.5,50.0,36.5,27.5,26,14,7,29.82,29.69,14,1,14,0.00
2013-6-17,105.6,94.7,80.2,38.7,30.2,21.7,21,11,6,29.81,29.66,12,1,13,0.00
2013-6-18,105.8,93.8,79.3,36.0,26.0,12.9,21,10,4,29.75,29.59,14,1,14,0.00
2013-6-19,105.3,91.5,72.1,36.5,26.2,18.9,25,11,5,29.69,29.55,12,1,13,0.00
2013-6-20,103.5,90.5,73.8,41.4,31.4,22.8,31,13,7,29.73,29.60,11,1,11,0.00
2013-6-21,104.4,91.1,73.9,39.7,28.3,17.1,29,12,5,29.77,29.61,12,1,12,0.00
2013-6-22,103.5,90.1,75.6,35.4,29.9,23.2,23,12,6,29.77,29.61,12,1,12,0.00
2013-6-23,104.2,90.6,76.5,35.8,24.5,10.4,19,10,4,29.72,29.54,10,2,15,0.00
2013-6-24,100.8,89.1,75.2,41.7,31.8,20.1,24,13,7,29.75,29.62,12,1,12,0.00
2013-6-25,102.4,90.2,75.6,43.0,35.2,24.4,26,15,7,29.85,29.71,13,1,15,0.00
2013-6-26,104.7,91.7,74.7,39.4,32.1,25.5,20,12,8,29.92,29.78,13,1,13,0.00
2013-6-27,107.4,94.8,77.4,48.9,37.9,16.5,36,16,4,29.95,29.75,11,1,13,0.00
2013-6-28,114.1,100.3,83.1,51.1,46.4,41.9,28,17,10,29.79,29.61,12,1,12,0.00
2013-6-29,115.9,103.8,89.1,53.2,45.2,38.3,27,15,8,29.71,29.55,13,2,14,0.00
2013-6-30,112.8,101.3,89.2,60.3,53.8,47.1,34,22,12,29.73,29.52,25,2,25,0.00
2013-7-1,110.5,99.5,88.2,61.0,56.2,50.7,39,25,16,29.77,29.60,18,2,18,0.00
2013-7-2,106.5,96.4,82.9,65.1,58.9,53.1,54,31,19,29.88,29.66,12,2,16,0.00
2013-7-3,110.3,96.7,85.6,57.2,54.0,48.9,36,25,14,29.78,29.53,12,2,15,0.00
2013-7-4,106.9,98.5,88.5,58.8,55.5,51.1,33,24,18,29.70,29.53,17,2,17,0.00
2013-7-5,104.4,95.4,88.0,64.6,59.3,56.1,42,31,21,29.73,29.56,12,1,12,0.00
2013-7-6,107.6,96.1,84.2,65.7,61.0,53.6,53,33,19,29.70,29.52,13,1,14,0.00
2013-7-7,110.5,98.2,85.8,63.9,59.2,51.1,47,29,17,29.68,29.54,13,1,13,0.00
2013-7-8,111.7,99.8,88.9,61.0,57.2,44.2,37,26,11,29.77,29.62,20,2,25,0.00
2013-7-9,104.4,96.0,89.1,68.9,63.3,57.6,44,35,23,29.91,29.71,14,2,15,0.00
2013-7-10,101.3,93.4,82.9,68.0,64.0,59.9,60,39,28,29.88,29.71,17,-1,21,0.00
2013-7-11,95.4,89.4,82.0,70.7,66.4,61.3,67,48,38,29.86,29.73,15,2,15,0.00
2013-7-12,96.6,89.7,86.0,66.9,63.4,59.5,50,42,33,29.83,29.72,11,1,15,0.00
2013-7-13,103.3,93.6,82.6,66.7,62.7,57.4,55,38,24,29.85,29.67,13,1,13,0.00
2013-7-14,108.0,98.6,89.4,63.3,59.8,57.7,40,29,21,29.78,29.60,18,2,18,0.00
2013-7-15,107.6,95.5,85.1,71.8,62.8,59.2,57,35,22,29.70,29.55,32,2,37,0.24
2013-7-16,99.0,88.1,80.6,69.3,66.5,60.3,68,50,31,29.89,29.68,20,3,31,0.00
2013-7-17,102.9,91.3,81.1,70.3,63.2,54.0,69,42,21,29.92,29.77,17,2,21,0.00
2013-7-18,103.8,94.6,85.8,63.1,57.5,54.5,41,30,21,29.87,29.67,18,2,19,0.00
2013-7-19,101.5,90.9,79.2,70.3,64.6,59.0,74,44,27,29.83,29.65,41,2,41,0.03
2013-7-20,100.4,87.4,75.2,73.2,68.0,62.1,90,56,31,29.80,29.62,18,2,29,0.09
2013-7-21,86.2,80.7,74.5,74.7,72.6,70.0,92,77,63,29.85,29.73,11,2,24,0.47
2013-7-22,95.2,84.7,77.4,73.9,70.5,63.0,87,64,40,29.90,29.78,20,1,20,0.47
2013-7-23,100.2,90.1,80.4,71.2,65.6,59.2,71,47,29,29.89,29.73,10,1,16,0.00
2013-7-24,104.2,94.6,84.4,68.7,63.8,60.3,57,37,25,29.79,29.64,12,1,13,0.00
2013-7-25,100.2,90.1,79.0,70.5,67.7,64.2,74,49,33,29.88,29.74,17,1,17,0.00
2013-7-26,102.0,91.9,83.8,74.3,69.1,63.5,71,49,30,29.97,29.81,13,1,13,0.00
2013-7-27,103.5,93.2,83.5,70.2,65.6,59.0,61,42,27,29.89,29.66,14,1,15,0.00
2013-7-28,106.3,95.6,85.3,64.9,56.9,46.6,50,30,17,29.74,29.59,19,1,20,0.00
2013-7-29,104.7,94.5,83.7,53.6,49.4,44.4,33,22,15,29.86,29.69,10,1,15,0.00
2013-7-30,106.0,95.8,82.4,55.9,52.4,48.2,39,24,18,29.97,29.82,12,0,12,0.00
2013-7-31,107.8,98.6,86.7,61.0,53.3,49.6,33,23,15,29.90,29.73,16,1,17,0.00
2013-8-1,104.2,94.8,89.2,63.9,60.5,57.4,42,33,23,29.82,29.70,17,1,22,0.00
2013-8-2,102.7,93.7,86.4,64.4,59.9,46.8,46,34,19,29.83,29.71,14,1,15,0.00
2013-8-3,105.3,94.5,83.1,63.9,57.2,41.4,48,31,15,29.87,29.71,15,0,16,0.00
2013-8-4,104.5,94.6,84.0,58.8,47.1,36.1,40,21,12,29.87,29.73,5,0,9,0.00
2013-8-5,99.7,91.3,84.6,64.4,55.2,35.8,45,31,14,29.90,29.74,12,2,18,0.00
2013-8-6,89.4,79.8,73.8,69.8,66.3,59.2,85,65,37,29.97,29.80,13,0,13,0.11
2013-8-7,100.4,87.7,75.9,67.5,58.7,44.2,75,42,17,29.94,29.77,6,0,14,0.00
2013-8-8,103.8,91.4,76.6,53.8,42.1,32.7,43,20,9,29.83,29.68,12,1,13,0.00
2013-8-9,105.6,93.1,81.7,46.6,40.3,32.0,28,17,10,29.79,29.67,17,2,18,0.00
2013-8-10,103.8,92.3,77.4,46.2,37.7,27.7,33,16,9,29.89,29.73,15,1,15,0.00
2013-8-11,104.4,92.7,78.3,57.2,41.1,23.2,28,18,8,29.86,29.67,11,1,14,0.00
2013-8-12,106.3,94.7,80.8,61.9,46.5,23.0,47,22,8,29.80,29.67,15,1,16,0.00
2013-8-13,105.3,93.8,79.3,45.1,34.9,16.3,27,14,5,29.87,29.71,12,1,12,0.00
2013-8-14,107.6,97.3,84.0,51.1,43.9,29.3,29,17,10,29.83,29.66,14,1,15,0.00
2013-8-15,107.4,97.1,87.4,61.9,58.5,46.9,39,29,19,29.83,29.68,13,1,15,0.00
2013-8-16,110.5,99.5,91.2,59.7,55.9,51.8,32,24,16,29.81,29.66,16,2,17,0.00
2013-8-17,109.9,97.5,82.9,71.2,58.5,48.7,66,29,14,29.85,29.62,26,2,30,0.15
2013-8-18,107.4,94.4,82.2,66.2,59.2,52.7,56,33,18,29.83,29.67,21,1,21,0.00
2013-8-19,108.0,96.9,86.2,63.9,56.9,51.4,44,28,17,29.82,29.66,12,1,12,0.00
2013-8-20,108.7,96.6,87.1,59.9,55.4,43.0,39,27,13,29.79,29.63,23,1,25,0.00
2013-8-21,100.0,91.9,86.7,62.8,59.2,55.6,42,34,26,29.84,29.72,14,0,16,0.00
2013-8-22,102.9,94.1,87.4,62.6,58.0,54.5,43,30,23,29.84,29.67,22,2,22,0.00
2013-8-23,102.0,91.6,80.4,63.9,59.4,53.1,55,36,22,29.78,29.61,14,1,15,0.00
2013-8-24,96.8,88.4,81.1,66.0,62.1,56.8,57,42,29,29.85,29.70,15,1,16,0.03
2013-8-25,86.2,84.7,82.2,69.3,66.1,62.4,62,54,46,29.91,29.81,22,4,22,0.03
2013-8-26,99.7,86.7,79.5,69.3,65.8,61.7,71,51,30,29.88,29.70,22,2,22,0.00
2013-8-27,105.1,91.5,78.6,70.5,64.8,54.3,71,45,20,29.79,29.63,27,2,27,0.00
2013-8-28,103.6,93.4,82.6,68.4,62.5,59.2,61,37,25,29.84,29.65,14,2,24,0.00
2013-8-29,96.1,85.9,80.2,73.0,68.6,66.2,71,57,39,29.96,29.84,14,1,14,0.02
2013-8-30,98.2,86.6,79.2,75.2,70.2,65.8,86,60,37,29.97,29.82,17,1,17,0.06
2013-8-31,100.0,88.5,78.1,74.5,68.3,58.5,88,55,27,29.91,29.73,12,1,14,0.06
2013-9-1,102.7,92.9,81.7,68.2,64.7,58.1,63,41,24,29.82,29.67,12,1,13,0.00
2013-9-2,98.2,91.7,84.0,69.1,64.9,61.0,56,42,33,29.84,29.67,12,1,14,0.00
2013-9-3,107.1,95.3,82.9,70.3,61.6,56.1,65,35,20,29.81,29.67,12,1,13,0.00
2013-9-4,106.9,95.7,83.5,64.8,59.4,53.1,53,32,18,29.84,29.68,15,0,15,0.00
2013-9-5,108.9,98.2,87.1,59.5,52.8,45.9,38,23,13,29.82,29.67,13,1,14,0.00
2013-9-6,107.4,95.3,85.6,62.8,57.2,51.6,44,29,18,29.82,29.65,27,2,27,0.00
2013-9-7,93.9,86.9,80.8,65.3,62.0,58.1,57,44,34,29.87,29.73,14,1,14,0.00
2013-9-8,88.7,81.0,71.8,71.4,67.0,58.1,92,64,38,29.84,29.68,12,1,13,0.46
2013-9-9,82.6,77.1,70.9,72.3,69.3,63.9,94,77,59,29.78,29.67,13,0,14,0.67
2013-9-10,84.6,77.7,72.0,69.4,66.4,59.7,89,70,47,29.84,29.72,13,1,13,0.00
2013-9-11,93.0,81.5,69.6,67.6,63.4,53.8,88,58,32,29.93,29.80,10,0,10,0.00
2013-9-12,97.5,86.7,72.7,63.1,57.5,50.7,71,40,22,29.83,29.66,9,0,12,0.00
2013-9-13,99.7,89.6,78.1,67.3,60.2,54.1,56,38,27,29.70,29.52,13,0,13,0.00
2013-9-14,100.8,91.4,82.9,64.9,60.4,53.1,51,37,21,29.65,29.52,14,1,15,0.00
2013-9-15,102.7,92.6,83.7,62.1,56.4,46.8,44,31,16,29.70,29.60,13,1,14,0.00
2013-9-16,104.4,95.2,87.3,61.3,57.3,51.6,37,29,20,29.74,29.59,15,1,19,0.00
2013-9-17,103.8,95.1,87.1,62.1,57.9,44.1,41,30,18,29.69,29.50,20,1,20,0.00
2013-9-18,103.6,92.9,81.7,52.9,41.3,25.7,35,18,7,29.66,29.53,14,1,14,0.00
2013-9-19,99.7,87.6,71.8,52.2,40.3,23.5,48,22,9,29.71,29.60,9,0,9,0.00
2013-9-20,103.1,89.8,73.2,52.2,43.6,31.1,39,21,13,29.74,29.62,14,1,14,0.00
2013-9-21,99.7,89.5,77.2,60.4,53.2,48.2,48,30,19,29.75,29.55,11,0,13,0.00
2013-9-22,88.2,83.1,77.2,61.2,43.7,19.6,53,28,10,29.69,29.56,16,2,18,0.00
2013-9-23,90.9,78.9,63.3,38.1,32.0,26.4,39,20,11,29.85,29.69,12,0,14,0.00
2013-9-24,96.3,81.6,65.1,42.3,36.6,28.4,40,21,10,29.91,29.71,12,0,12,0.00
2013-9-25,94.5,82.8,71.8,46.8,40.6,28.8,39,24,10,29.73,29.54,11,1,11,0.00
2013-9-26,93.2,80.1,66.7,50.2,39.7,28.6,33,24,15,29.69,29.54,18,2,19,0.00
2013-9-27,84.4,76.4,67.6,32.5,25.0,12.4,25,16,7,29.88,29.68,13,1,13,0.00
2013-9-28,89.1,77.6,62.4,38.5,27.8,20.5,28,17,10,30.02,29.88,14,1,14,0.00
2013-9-29,92.8,80.3,64.6,39.0,33.9,24.1,35,19,13,30.02,29.87,11,0,12,0.00
2013-9-30,93.4,79.5,63.5,43.9,37.3,31.1,46,24,12,29.92,29.77,9,0,10,0.00
2013-10-1,92.8,79.6,63.1,44.8,37.3,31.5,40,23,12,29.91,29.77,11,0,13,0.00
2013-10-2,92.5,80.5,66.9,48.4,44.5,41.5,49,29,19,29.89,29.73,11,0,11,0.00
2013-10-3,91.6,80.3,66.6,49.8,43.9,32.9,54,29,14,29.79,29.62,12,1,12,0.00
2013-10-4,86.7,77.3,66.4,49.1,31.0,2.5,51,23,5,29.95,29.71,20,2,20,0.00
2013-10-5,84.0,75.3,66.7,23.2,17.1,10.9,15,11,7,30.12,29.94,20,3,20,0.00
2013-10-6,89.8,79.2,68.5,28.8,20.7,15.6,17,12,7,30.09,29.91,19,2,19,0.00
2013-10-7,92.8,81.1,71.6,31.5,24.7,17.4,19,13,8,29.95,29.79,13,1,14,0.00
2013-10-8,91.6,78.0,63.9,37.6,32.2,23.7,32,20,12,29.83,29.66,12,0,15,0.00
2013-10-9,85.5,74.9,64.9,50.0,38.7,28.2,54,28,20,29.70,29.58,21,3,22,0.00
2013-10-10,71.8,64.3,55.4,50.2,40.5,34.3,67,43,27,29.94,29.68,19,2,19,0.00
2013-10-11,76.5,65.4,54.0,40.8,38.1,34.2,61,38,25,30.01,29.88,12,0,12,0.00
2013-10-12,82.8,70.0,54.1,40.6,37.2,35.1,58,32,19,29.94,29.81,13,0,13,0.00
2013-10-13,84.6,72.0,56.8,47.3,38.9,33.6,54,32,18,29.92,29.81,11,0,11,0.00
2013-10-14,82.6,72.0,60.3,48.6,39.4,25.0,60,34,16,29.99,29.87,10,0,10,0.00
2013-10-15,81.9,69.9,56.3,39.4,31.4,21.0,49,26,14,29.92,29.81,18,0,18,0.00
2013-10-16,80.1,69.3,55.8,33.3,28.2,23.2,40,22,14,30.04,29.88,9,0,10,0.00
2013-10-17,81.7,67.3,52.2,36.0,30.6,25.2,53,28,14,30.04,29.86,9,0,9,0.00
2013-10-18,84.0,68.6,54.0,34.9,29.5,22.1,47,25,11,29.99,29.88,9,0,9,0.00
2013-10-19,86.4,72.7,57.7,33.4,23.8,14.2,34,17,7,30.01,29.86,12,1,13,0.00
2013-10-20,85.8,69.4,52.9,32.2,26.3,19.4,45,22,9,29.93,29.79,10,0,10,0.00
2013-10-21,86.0,71.0,53.2,33.1,26.3,19.8,40,20,9,29.96,29.84,11,0,11,0.00
2013-10-22,90.0,75.8,57.0,32.9,25.6,19.2,36,17,9,30.00,29.84,16,1,16,0.00
2013-10-23,91.8,80.5,70.3,33.6,27.6,19.0,25,15,9,29.88,29.75,17,2,17,0.00
2013-10-24,90.0,76.9,64.2,34.9,28.1,23.7,32,17,10,29.90,29.78,10,0,10,0.00
2013-10-25,87.6,73.0,56.8,36.0,30.4,23.4,41,22,10,30.02,29.89,13,0,14,0.00
2013-10-26,88.9,76.0,59.7,40.6,34.7,27.0,37,23,16,30.06,29.91,16,1,16,0.00
2013-10-27,88.5,76.4,60.6,40.1,34.1,27.9,46,23,13,29.91,29.68,13,1,14,0.00
2013-10-28,81.9,72.5,64.0,45.9,38.7,29.8,44,30,20,29.80,29.69,19,2,19,0.00
2013-10-29,72.7,65.2,58.3,47.5,41.9,37.0,59,43,32,29.90,29.80,13,1,15,0.00
2013-10-30,72.3,61.8,50.9,41.5,36.0,30.4,65,40,23,30.01,29.88,12,1,12,0.00
2013-10-31,74.8,61.2,48.7,35.2,31.7,23.2,58,35,15,30.12,29.98,9,0,9,0.00
2013-11-1,79.5,63.6,47.8,34.5,31.2,26.8,56,32,17,30.15,29.98,7,0,8,0.00
2013-11-2,86.0,71.9,54.9,37.9,27.2,19.0,40,20,9,30.00,29.78,17,1,19,0.00
2013-11-3,74.5,65.2,60.3,48.4,39.3,29.3,56,40,24,29.83,29.78,8,0,12,0.00
2013-11-4,68.4,64.5,62.2,48.0,46.9,44.6,56,53,47,29.81,29.72,15,3,17,0.00
2013-11-5,73.6,64.3,55.2,48.2,42.9,22.1,73,49,20,30.11,29.81,16,1,16,0.00
2013-11-6,76.8,67.3,57.7,34.2,10.0,-1.3,35,12,5,30.25,30.11,17,3,17,0.00
2013-11-7,82.2,71.6,61.9,21.6,12.8,4.1,20,11,7,30.18,29.98,17,2,17,0.00
2013-11-8,82.8,71.6,60.4,36.9,29.4,15.8,33,21,13,30.04,29.89,13,1,13,0.00
2013-11-9,83.1,70.0,54.3,39.2,36.0,33.6,54,30,18,30.07,29.96,17,1,17,0.00
2013-11-10,83.1,72.2,59.4,39.2,36.2,32.7,41,28,19,30.09,29.95,13,1,14,0.00
2013-11-11,89.4,75.2,59.4,42.3,37.1,25.7,45,27,13,30.05,29.92,17,1,17,0.00
2013-11-12,89.8,81.4,75.4,42.1,31.4,21.9,28,17,12,30.12,29.98,21,3,21,0.00
2013-11-13,82.8,74.4,67.1,46.0,43.0,38.5,40,33,27,30.09,29.91,25,1,25,0.00
2013-11-14,80.8,69.2,60.6,46.0,44.2,43.0,54,41,28,29.98,29.76,13,1,13,0.00
2013-11-15,81.9,69.9,60.6,51.6,45.1,39.7,59,42,23,29.76,29.53,17,2,17,0.00
2013-11-16,71.4,64.3,57.2,52.9,48.2,41.2,80,57,35,29.88,29.65,10,0,10,0.00
2013-11-17,72.9,63.0,51.6,49.3,47.0,44.4,82,58,41,30.06,29.88,11,0,12,0.00
2013-11-18,79.2,67.3,55.9,48.4,45.0,41.4,68,46,30,30.07,29.92,14,0,15,0.00
2013-11-19,75.9,65.1,54.9,47.8,46.3,44.2,71,52,34,29.95,29.81,9,0,9,0.00
2013-11-20,73.0,65.2,58.6,47.3,44.7,41.5,62,48,36,29.86,29.77,11,1,13,0.00
2013-11-21,69.1,61.8,55.9,55.2,46.7,41.9,91,59,45,29.91,29.83,12,0,12,0.03
2013-11-22,58.3,55.0,50.9,55.4,52.0,48.9,94,90,75,29.99,29.76,22,-2,22,2.13
2013-11-23,56.5,52.7,50.4,50.5,47.4,43.5,95,83,63,30.09,29.95,19,1,19,0.38
2013-11-24,60.3,53.5,50.0,45.5,42.9,38.5,84,68,53,30.18,30.08,10,0,14,0.00
2013-11-25,62.1,52.7,43.9,46.8,41.8,37.8,85,67,47,30.24,30.16,11,0,12,0.00
2013-11-26,69.6,59.4,47.1,44.2,37.6,29.3,86,47,29,30.30,30.14,21,2,21,0.00
2013-11-27,67.8,60.5,53.8,32.5,29.3,26.8,43,31,23,30.16,29.98,20,1,20,0.00
2013-11-28,70.3,60.0,46.9,40.5,31.7,27.9,61,35,24,30.09,29.99,15,1,15,0.00
2013-11-29,72.0,60.8,48.0,45.5,39.1,32.2,70,46,31,30.16,30.06,15,0,16,0.00
2013-11-30,67.8,57.9,48.0,50.4,45.8,41.5,82,65,46,30.17,30.05,10,0,10,0.00
2013-12-1,70.3,58.5,48.6,48.2,45.3,41.5,89,64,37,30.22,30.10,8,0,9,0.00
2013-12-2,68.7,56.3,47.3,48.7,46.0,38.8,87,69,46,30.13,29.90,11,0,11,0.00
2013-12-3,70.9,59.2,48.6,46.8,42.3,35.6,86,57,29,29.90,29.66,8,0,9,0.00
2013-12-4,61.7,56.0,48.6,47.5,38.9,25.9,66,53,40,29.92,29.67,15,1,16,0.00
2013-12-5,55.6,47.8,39.7,31.1,23.0,15.4,71,39,21,30.12,29.91,13,1,13,0.00
2013-12-6,54.0,42.9,33.4,28.6,23.7,17.8,71,49,25,30.25,30.12,8,0,8,0.00
2013-12-7,56.3,45.2,33.6,40.3,28.5,23.5,74,54,33,30.14,30.00,8,-3,8,0.00
2013-12-8,57.7,51.9,46.0,41.5,30.2,14.0,73,46,27,30.13,30.01,15,1,16,0.00
2013-12-9,54.0,45.6,34.9,22.8,16.3,5.0,61,32,17,30.36,30.10,20,1,20,0.00
2013-12-10,62.2,52.0,41.4,18.1,9.4,3.6,30,18,12,30.34,30.12,20,3,20,0.00
2013-12-11,70.3,58.8,42.4,25.7,20.1,13.5,44,23,15,30.23,30.11,15,2,16,0.00
2013-12-12,71.2,61.6,49.3,34.7,28.8,23.0,52,29,22,30.15,30.03,15,1,15,0.00
2013-12-13,63.0,53.2,43.9,32.7,29.4,26.8,56,40,29,30.18,30.08,7,0,8,0.00
2013-12-14,66.0,53.7,40.3,34.9,28.2,16.9,72,42,19,30.33,30.18,15,1,19,0.00
2013-12-15,70.2,60.2,52.9,27.0,21.7,16.7,36,23,16,30.31,30.16,20,2,20,0.00
2013-12-16,74.3,61.6,51.3,35.1,28.6,23.2,44,29,20,30.22,30.10,15,1,15,0.00
2013-12-17,79.0,63.8,48.4,36.5,30.6,25.3,53,30,15,30.21,30.04,16,1,16,0.00
2013-12-18,73.4,65.8,55.0,37.4,30.9,25.7,50,28,18,30.04,29.77,18,2,18,0.00
2013-12-19,70.0,59.0,50.5,49.3,38.3,31.1,78,48,25,29.77,29.64,14,1,14,0.00
2013-12-20,57.0,52.1,47.7,49.5,47.1,44.6,91,83,63,29.81,29.60,21,1,22,0.34
2013-12-21,58.1,49.9,42.1,47.1,41.1,35.2,94,74,43,30.06,29.80,10,0,10,0.00
2013-12-22,59.7,50.3,43.0,42.3,39.1,36.0,83,66,43,30.30,30.06,14,1,14,0.00
2013-12-23,67.3,54.0,40.3,39.2,33.1,26.8,87,51,23,30.40,30.24,17,1,19,0.00
2013-12-24,69.3,60.2,48.6,35.8,29.1,24.6,50,31,21,30.25,30.09,18,1,18,0.00
2013-12-25,70.3,60.5,49.6,34.7,22.8,11.8,55,26,11,30.27,30.14,21,2,21,0.00
2013-12-26,69.1,59.9,52.0,30.6,22.7,14.2,37,24,17,30.25,30.11,16,2,18,0.00
2013-12-27,71.8,59.1,50.0,32.0,24.6,18.3,46,27,16,30.23,30.08,13,1,15,0.00
2013-12-28,63.9,56.6,48.7,35.2,27.6,22.3,49,33,22,30.12,29.93,8,0,11,0.00
2013-12-29,66.9,55.1,41.4,36.3,30.1,20.5,72,42,22,30.14,29.94,14,1,14,0.00
2013-12-30,64.8,54.4,44.4,31.8,24.6,17.6,53,32,22,30.29,30.14,18,1,18,0.00
2013-12-31,69.3,53.6,40.3,35.8,29.4,23.4,65,41,23,30.25,30.09,13,0,13,0.00
2014-1-1,67.6,53.5,40.6,36.9,32.3,28.8,73,47,25,30.18,30.07,11,0,12,0.00
2014-1-2,74.5,60.7,42.8,33.6,28.3,22.3,70,33,17,30.18,30.02,14,1,17,0.00